SM4TUV Weather Reports


Display with metric or nautical units.
time (UTC)temp
F
wind
direction
speed
MPH
gust
MPH
rain 1hr
in
rain 24hr
in
rain mn
in
humidity
%
barometer
mb
20260507205331 41 73 4.0 5.0 0.00 0.00 0.00 52 986.7
20260507204429 41 75 4.0 6.0 0.00 0.00 0.00 50 986.6
20260507202629 42 44 4.0 5.0 0.00 0.00 0.00 46 986.5
20260507201729 43 59 4.0 5.0 0.00 0.00 0.00 43 986.2
20260507200831 44 71 3.0 5.0 0.00 0.00 0.00 39 986.1
20260507195930 45 51 3.0 6.0 0.00 0.00 0.00 35 986.1
20260507194129 48 38 3.0 8.0 0.00 0.00 0.00 26 985.9
20260507193230 49 67 2.0 4.0 0.00 0.00 0.00 23 985.8
20260507192330 49 119 1.0 2.0 0.00 0.00 0.00 22 985.5
20260507191429 51 100 1.0 3.0 0.00 0.00 0.00 21 985.4
20260507190529 53 121 1.0 2.0 0.00 0.00 0.00 19 985.1
20260507185631 53 89 1.0 2.0 0.00 0.00 0.00 18 985.2
20260507184729 55 31 2.0 4.0 0.00 0.00 0.00 18 985.1
20260507183831 56 353 1.0 2.0 0.00 0.00 0.00 17 985.0
20260507182930 56 352 2.0 3.0 0.00 0.00 0.00 16 985.0
20260507182029 57 329 2.0 2.0 0.00 0.00 0.00 15 984.8
20260507181129 57 316 2.0 4.0 0.00 0.00 0.00 16 984.7
20260507180229 57 326 3.0 5.0 0.00 0.00 0.00 16 984.7
20260507175330 56 313 6.0 8.0 0.00 0.00 0.00 16 984.7
20260507174429 57 312 5.0 6.0 0.00 0.00 0.00 16 984.5
20260507172630 58 307 3.0 5.0 0.00 0.00 0.00 15 984.5
20260507170831 58 311 4.0 8.0 0.00 0.00 0.00 14 984.2
20260507165930 58 287 5.0 8.0 0.00 0.00 0.00 15 984.3
20260507163229 59 210 6.0 9.0 0.00 0.00 0.00 14 984.2
20260507162331 59 267 6.0 9.0 0.00 0.00 0.00 13 984.0
20260507161429 59 244 7.0 8.0 0.00 0.00 0.00 14 984.0
20260507160530 58 229 7.0 9.0 0.00 0.00 0.00 14 983.9
20260507154730 58 233 8.0 11.0 0.00 0.00 0.00 14 983.7
20260507153831 59 242 5.0 8.0 0.00 0.00 0.00 15 983.8
20260507152030 58 204 8.0 15.0 0.00 0.00 0.00 14 983.6
20260507151129 58 308 6.0 8.0 0.00 0.00 0.00 15 983.6
20260507150230 59 273 6.0 8.0 0.00 0.00 0.00 15 983.5
20260507144430 58 270 7.0 11.0 0.00 0.00 0.00 13 983.4
20260507143530 58 295 8.0 11.0 0.00 0.00 0.00 15 983.3
20260507142631 57 247 9.0 11.0 0.00 0.00 0.00 15 983.4
20260507140829 57 277 9.0 11.0 0.00 0.00 0.00 13 983.3
20260507135930 57 300 8.0 15.0 0.00 0.00 0.00 16 983.3
20260507135029 58 246 7.0 11.0 0.00 0.00 0.00 14 983.2
20260507134129 58 289 7.0 11.0 0.00 0.00 0.00 15 983.3
20260507133229 58 291 7.0 11.0 0.00 0.00 0.00 16 983.1
20260507132329 57 269 8.0 13.0 0.00 0.00 0.00 15 983.0
20260507131430 57 222 10.0 13.0 0.00 0.00 0.00 17 983.0
20260507125631 58 277 7.0 11.0 0.00 0.00 0.00 16 983.2
20260507124730 56 283 9.0 13.0 0.00 0.00 0.00 15 983.0
20260507123831 56 242 10.0 14.0 0.00 0.00 0.00 16 983.0
20260507122930 56 244 9.0 14.0 0.00 0.00 0.00 16 983.0
20260507122030 56 274 7.0 12.0 0.00 0.00 0.00 16 983.0
20260507121130 55 220 7.0 8.0 0.00 0.00 0.00 17 983.0
20260507120230 55 229 8.0 12.0 0.00 0.00 0.00 17 982.8
20260507115330 55 274 7.0 13.0 0.00 0.00 0.00 17 982.9
20260507114430 54 270 8.0 14.0 0.00 0.00 0.00 21 982.8
20260507113530 54 210 9.0 13.0 0.00 0.00 0.00 19 982.8
20260507112630 54 304 8.0 11.0 0.00 0.00 0.00 20 982.9
20260507111730 54 233 10.0 13.0 0.00 0.00 0.00 21 982.8
20260507110831 54 218 9.0 13.0 0.00 0.00 0.00 19 982.7
20260507105030 54 210 8.0 11.0 0.00 0.00 0.00 20 982.6
20260507103229 54 259 6.0 11.0 0.00 0.00 0.00 21 982.6
20260507102331 53 217 8.0 11.0 0.00 0.00 0.00 24 982.6
20260507101430 53 284 7.0 11.0 0.00 0.00 0.00 22 982.6
20260507100530 53 282 9.0 11.0 0.00 0.00 0.00 23 982.5
20260507095629 52 272 8.0 11.0 0.00 0.00 0.00 23 982.5
20260507093831 52 259 8.0 11.0 0.00 0.00 0.00 27 982.3
20260507091130 51 294 7.0 10.0 0.00 0.00 0.00 27 982.5
20260507090230 52 292 5.0 10.0 0.00 0.00 0.00 28 982.3
20260507085330 52 267 4.0 8.0 0.00 0.00 0.00 29 982.3
20260507084448 52 188 5.0 8.0 0.00 0.00 0.00 27 982.5
20260507083530 51 287 5.0 8.0 0.00 0.00 0.00 30 982.5
20260507082635 51 257 5.0 10.0 0.00 0.00 0.00 31 982.4
20260507075930 51 315 3.0 7.0 0.00 0.00 0.00 36 982.1
20260507075030 50 288 3.0 5.0 0.00 0.00 0.00 37 982.1
20260507074130 51 245 4.0 5.0 0.00 0.00 0.00 38 982.0
20260507073230 50 298 5.0 7.0 0.00 0.00 0.00 40 982.1
20260507071430 50 319 3.0 6.0 0.00 0.00 0.00 38 982.1
20260507070530 51 8 2.0 5.0 0.00 0.00 0.00 39 981.9
20260507065630 51 38 2.0 4.0 0.00 0.00 0.00 39 982.1
20260507063830 51 321 3.0 4.0 0.00 0.00 0.00 40 981.9
20260507062930 51 18 2.0 2.0 0.00 0.00 0.00 41 981.7
20260507062030 49 30 2.0 4.0 0.00 0.00 0.00 42 981.7
20260507061130 50 50 2.0 2.0 0.00 0.00 0.00 43 981.7
20260507060230 47 54 2.0 3.0 0.00 0.00 0.00 46 981.6
20260507055330 46 30 2.0 2.0 0.00 0.00 0.00 47 981.5
20260507054431 44 49 2.0 4.0 0.00 0.00 0.00 49 981.4
20260507053530 43 33 3.0 4.0 0.00 0.00 0.00 51 981.5
20260507052631 41 39 4.0 4.0 0.00 0.00 0.00 52 981.4
20260507051730 40 40 4.0 5.0 0.00 0.00 0.00 52 981.5
20260507050831 39 10 4.0 5.0 0.00 0.00 0.00 52 981.4
20260507045930 40 65 3.0 4.0 0.00 0.00 0.00 51 981.3
20260507044130 39 101 3.0 4.0 0.00 0.00 0.00 53 981.0
20260507043230 37 61 4.0 4.0 0.00 0.00 0.00 56 981.0
20260507042331 37 65 4.0 6.0 0.00 0.00 0.00 56 980.9
20260507041430 37 66 4.0 4.0 0.00 0.00 0.00 56 981.0
20260507040530 36 90 5.0 5.0 0.00 0.00 0.00 58 980.8
20260507035630 36 86 4.0 5.0 0.00 0.00 0.00 58 980.9
20260507034730 35 93 4.0 5.0 0.00 0.00 0.00 59 980.7
20260507032030 33 93 4.0 5.0 0.00 0.00 0.00 65 980.5
20260507031131 32 120 4.0 4.0 0.00 0.00 0.00 66 980.5
20260507030230 31 119 4.0 4.0 0.00 0.00 0.00 68 980.5
20260507025331 31 121 3.0 4.0 0.00 0.00 0.00 69 980.4
20260507024431 31 102 3.0 4.0 0.00 0.00 0.00 68 980.4
20260507023530 32 89 3.0 4.0 0.00 0.00 0.00 66 980.4
20260507022630 33 85 2.0 4.0 0.00 0.00 0.00 64 980.5
20260507021730 34 96 1.0 2.0 0.00 0.00 0.00 61 980.4
20260507020831 35 139 1.0 2.0 0.00 0.00 0.00 60 980.4
20260507015930 36 117 2.0 3.0 0.00 0.00 0.00 59 980.2
20260507014131 36 133 4.0 5.0 0.00 0.00 0.00 61 980.1
20260507013230 35 125 4.0 5.0 0.00 0.00 0.00 62 980.1
20260507012330 35 113 3.0 4.0 0.00 0.00 0.00 64 980.1
20260507010530 34 52 1.0 2.0 0.00 0.00 0.00 67 979.9
20260507005630 34 150 1.0 2.0 0.00 0.00 0.00 67 979.8
20260507004730 34 181 2.0 3.0 0.00 0.00 0.00 69 979.7
20260507003831 33 181 3.0 3.0 0.00 0.00 0.00 70 979.8
20260507002030 35 334 2.0 2.0 0.00 0.00 0.00 63 979.5
20260507001131 38 123 3.0 4.0 0.00 0.00 0.00 59 979.4
20260506235330 38 120 4.0 5.0 0.00 0.00 0.00 59 979.0
20260506234430 38 94 4.0 4.0 0.00 0.00 0.00 58 979.1
20260506233530 38 77 4.0 5.0 0.00 0.00 0.00 58 979.0
20260506232630 38 87 4.0 5.0 0.00 0.00 0.00 59 979.0
20260506231730 38 89 4.0 6.0 0.00 0.00 0.00 60 979.0
20260506225030 37 90 3.0 4.0 0.00 0.00 0.00 65 978.9
20260506223230 37 45 4.0 5.0 0.00 0.00 0.00 64 978.8
20260506222330 39 30 1.0 4.0 0.00 0.00 0.00 61 978.8
20260506221430 39 100 2.0 2.0 0.00 0.00 0.00 60 978.7
20260506220530 40 125 1.0 2.0 0.00 0.00 0.00 58 978.6
20260506215630 40 94 2.0 3.0 0.00 0.00 0.00 58 978.5
20260506213831 41 13 2.0 4.0 0.00 0.00 0.00 58 978.6
20260506212930 41 130 3.0 4.0 0.00 0.00 0.00 56 978.5